Time,TemperatureF,DewpointF,PressureIn,WindDirection,WindDirectionDegrees,WindSpeedMPH,WindSpeedGustMPH,Humidity,HourlyPrecipIn,Conditions,Clouds,dailyrainin,SoftwareType,DateUTC
2013-04-10 00:02:00,48.0,45.0,-100.00,North,0,12.0,17.0,91,0.14,,,-99.99,,2013-04-10 05:02:00,
2013-04-10 00:13:00,47.0,45.0,-100.00,North,10,16.0,19.0,91,0.11,,,-99.99,,2013-04-10 05:13:00,
2013-04-10 00:22:00,46.0,44.0,-100.00,North,10,16.0,23.0,91,0.54,,,-99.99,,2013-04-10 05:22:00,
2013-04-10 00:33:00,45.0,43.0,-100.00,NNW,340,17.0,26.0,92,0.76,,,-99.99,,2013-04-10 05:33:00,
2013-04-10 00:42:00,45.0,43.0,-100.00,NNW,340,17.0,26.0,92,0.76,,,-99.99,,2013-04-10 05:42:00,
2013-04-10 00:52:00,44.0,42.0,-100.00,North,10,18.0,26.0,92,0.25,,,-99.99,,2013-04-10 05:52:00,
2013-04-10 01:03:00,44.0,42.0,-100.00,North,10,18.0,26.0,92,0.25,,,-99.99,,2013-04-10 06:03:00,
2013-04-10 01:12:00,44.0,42.0,-100.00,North,0,18.0,28.0,92,0.00,,,-99.99,,2013-04-10 06:12:00,
2013-04-10 01:22:00,44.0,41.0,-100.00,North,5,17.0,28.0,92,0.00,,,-99.99,,2013-04-10 06:22:00,
2013-04-10 01:32:00,43.0,41.0,-100.00,NNE,20,17.0,26.0,92,0.37,,,-99.99,,2013-04-10 06:32:00,
2013-04-10 01:42:00,43.0,41.0,-100.00,NNE,20,17.0,26.0,92,0.37,,,-99.99,,2013-04-10 06:42:00,
2013-04-10 01:52:00,42.0,40.0,-100.00,NNE,25,20.0,30.0,92,0.31,,,-99.99,,2013-04-10 06:52:00,
2013-04-10 02:02:00,42.0,40.0,-100.00,NNE,25,20.0,30.0,92,0.31,,,-99.99,,2013-04-10 07:02:00,
2013-04-10 02:12:00,42.0,40.0,-100.00,NNE,25,16.0,29.0,92,0.31,,,-99.99,,2013-04-10 07:12:00,
2013-04-10 02:22:00,43.0,41.0,-100.00,West,275,24.0,32.0,92,0.13,,,-99.99,,2013-04-10 07:22:00,
2013-04-10 02:32:00,42.0,40.0,-100.00,NW,320,10.0,26.0,92,1.66,,,-99.99,,2013-04-10 07:32:00,
2013-04-10 02:42:00,42.0,40.0,-100.00,NW,320,10.0,26.0,92,1.66,,,-99.99,,2013-04-10 07:42:00,
2013-04-10 02:52:00,42.0,40.0,-100.00,NNE,15,11.0,14.0,92,1.06,,,-99.99,,2013-04-10 07:52:00,
2013-04-10 03:02:00,42.0,40.0,-100.00,NNE,15,11.0,14.0,92,1.06,,,-99.99,,2013-04-10 08:02:00,
2013-04-10 03:12:00,42.0,40.0,-100.00,NNE,15,14.0,21.0,92,0.92,,,-99.99,,2013-04-10 08:12:00,
2013-04-10 03:22:00,42.0,40.0,-100.00,North,10,17.0,22.0,92,0.88,,,-99.99,,2013-04-10 08:22:00,
2013-04-10 03:32:00,42.0,40.0,-100.00,NNE,25,16.0,32.0,92,0.24,,,-99.99,,2013-04-10 08:32:00,
2013-04-10 03:42:00,42.0,40.0,-100.00,NNE,25,16.0,32.0,92,0.24,,,-99.99,,2013-04-10 08:42:00,
2013-04-10 03:52:00,42.0,40.0,-100.00,NE,35,11.0,17.0,92,0.20,,,-99.99,,2013-04-10 08:52:00,
2013-04-10 04:02:00,42.0,40.0,-100.00,NE,35,11.0,17.0,92,0.20,,,-99.99,,2013-04-10 09:02:00,
2013-04-10 04:12:00,42.0,40.0,-100.00,NE,45,13.0,19.0,92,0.13,,,-99.99,,2013-04-10 09:12:00,
2013-04-10 04:22:00,42.0,40.0,-100.00,NE,55,17.0,22.0,92,0.00,,,-99.99,,2013-04-10 09:22:00,
2013-04-10 04:32:00,42.0,40.0,-100.00,ENE,65,9.0,21.0,92,0.00,,,-99.99,,2013-04-10 09:32:00,
2013-04-10 04:42:00,42.0,40.0,-100.00,ENE,65,9.0,21.0,92,0.00,,,-99.99,,2013-04-10 09:42:00,
2013-04-10 04:52:00,42.0,40.0,-100.00,ENE,75,11.0,18.0,92,0.00,,,-99.99,,2013-04-10 09:52:00,
2013-04-10 05:03:00,42.0,40.0,-100.00,ENE,75,11.0,18.0,92,0.00,,,-99.99,,2013-04-10 10:03:00,
2013-04-10 05:12:00,42.0,40.0,-100.00,East,80,9.0,18.0,92,0.00,,,-99.99,,2013-04-10 10:12:00,
2013-04-10 05:23:00,42.0,40.0,-100.00,ESE,110,6.0,13.0,92,0.00,,,-99.99,,2013-04-10 10:23:00,
2013-04-10 05:33:00,42.0,40.0,-100.00,ENE,65,4.0,7.0,92,0.00,,,-99.99,,2013-04-10 10:33:00,
2013-04-10 05:42:00,42.0,40.0,-100.00,ENE,65,4.0,7.0,92,0.00,,,-99.99,,2013-04-10 10:42:00,
2013-04-10 05:52:00,43.0,41.0,-100.00,ENE,60,2.0,5.0,92,0.10,,,-99.99,,2013-04-10 10:52:00,
2013-04-10 06:02:00,43.0,41.0,-100.00,ENE,60,2.0,5.0,92,0.10,,,-99.99,,2013-04-10 11:02:00,
2013-04-10 06:12:00,43.0,41.0,-100.00,SW,235,4.0,6.0,92,0.14,,,-99.99,,2013-04-10 11:12:00,
2013-04-10 06:22:00,43.0,41.0,-100.00,West,260,12.0,20.0,92,0.16,,,-99.99,,2013-04-10 11:22:00,
2013-04-10 06:32:00,44.0,42.0,-100.00,WSW,245,6.0,12.0,92,0.58,,,-99.99,,2013-04-10 11:32:00,
2013-04-10 06:42:00,44.0,42.0,-100.00,WSW,245,6.0,12.0,92,0.58,,,-99.99,,2013-04-10 11:42:00,
2013-04-10 06:52:00,44.0,42.0,-100.00,East,85,11.0,15.0,92,0.30,,,-99.99,,2013-04-10 11:52:00,
2013-04-10 07:03:00,44.0,42.0,-100.00,East,85,11.0,15.0,92,0.30,,,-99.99,,2013-04-10 12:03:00,
2013-04-10 07:12:00,44.0,42.0,-100.00,NE,40,6.0,17.0,92,0.17,,,-99.99,,2013-04-10 12:12:00,
2013-04-10 07:22:00,44.0,42.0,-100.00,NNE,30,10.0,14.0,92,0.11,,,-99.99,,2013-04-10 12:22:00,
2013-04-10 07:33:00,44.0,42.0,-100.00,North,5,12.0,14.0,92,0.10,,,-99.99,,2013-04-10 12:33:00,
2013-04-10 07:42:00,44.0,42.0,-100.00,North,5,12.0,14.0,92,0.10,,,-99.99,,2013-04-10 12:42:00,
2013-04-10 07:52:00,44.0,42.0,-100.00,SW,215,4.0,9.0,92,0.00,,,-99.99,,2013-04-10 12:52:00,
2013-04-10 08:02:00,44.0,42.0,-100.00,SW,215,4.0,9.0,92,0.00,,,-99.99,,2013-04-10 13:02:00,
2013-04-10 08:12:00,44.0,42.0,-100.00,WSW,240,7.0,12.0,92,0.00,,,-99.99,,2013-04-10 13:12:00,
2013-04-10 08:23:00,44.0,42.0,-100.00,WNW,290,4.0,8.0,92,0.00,,,-99.99,,2013-04-10 13:23:00,
2013-04-10 08:32:00,45.0,42.0,-100.00,WNW,295,4.0,6.0,92,0.11,,,-99.99,,2013-04-10 13:32:00,
2013-04-10 08:42:00,45.0,42.0,-100.00,WNW,295,4.0,6.0,92,0.11,,,-99.99,,2013-04-10 13:42:00,
2013-04-10 08:52:00,45.0,42.0,-100.00,NW,315,4.0,9.0,92,0.10,,,-99.99,,2013-04-10 13:52:00,
2013-04-10 09:02:00,45.0,42.0,-100.00,NW,315,4.0,9.0,92,0.10,,,-99.99,,2013-04-10 14:02:00,
2013-04-10 09:12:00,45.0,42.0,-100.00,North,0,2.0,6.0,92,0.10,,,-99.99,,2013-04-10 14:12:00,
2013-04-10 09:22:00,45.0,43.0,-100.00,North,0,3.0,5.0,92,0.10,,,-99.99,,2013-04-10 14:22:00,
2013-04-10 09:32:00,45.0,43.0,-100.00,NNW,335,4.0,6.0,92,0.00,,,-99.99,,2013-04-10 14:32:00,
2013-04-10 09:42:00,45.0,43.0,-100.00,NNW,335,4.0,6.0,92,0.00,,,-99.99,,2013-04-10 14:42:00,
2013-04-10 09:52:00,44.0,42.0,-100.00,NNW,335,9.0,10.0,92,0.00,,,-99.99,,2013-04-10 14:52:00,
2013-04-10 10:02:00,44.0,42.0,-100.00,NNW,335,9.0,10.0,92,0.00,,,-99.99,,2013-04-10 15:02:00,
2013-04-10 10:12:00,45.0,42.0,-100.00,NNW,345,6.0,9.0,92,0.00,,,-99.99,,2013-04-10 15:12:00,
2013-04-10 10:22:00,44.0,42.0,-100.00,NW,320,6.0,9.0,92,0.00,,,-99.99,,2013-04-10 15:22:00,
2013-04-10 10:32:00,45.0,43.0,-100.00,North,0,4.0,9.0,92,0.00,,,-99.99,,2013-04-10 15:32:00,
2013-04-10 10:42:00,45.0,43.0,-100.00,North,0,4.0,9.0,92,0.00,,,-99.99,,2013-04-10 15:42:00,
2013-04-10 10:52:00,45.0,43.0,-100.00,North,10,6.0,7.0,92,0.00,,,-99.99,,2013-04-10 15:52:00,
2013-04-10 11:03:00,45.0,43.0,-100.00,North,10,6.0,7.0,92,0.00,,,-99.99,,2013-04-10 16:03:00,
2013-04-10 11:13:00,45.0,43.0,-100.00,NNE,15,6.0,7.0,92,0.00,,,-99.99,,2013-04-10 16:13:00,
2013-04-10 11:23:00,45.0,42.0,-100.00,NNE,25,2.0,7.0,92,0.00,,,-99.99,,2013-04-10 16:23:00,
2013-04-10 11:33:00,45.0,42.0,-100.00,NE,40,5.0,6.0,92,0.16,,,-99.99,,2013-04-10 16:33:00,
2013-04-10 11:43:00,45.0,42.0,-100.00,NE,40,5.0,6.0,92,0.16,,,-99.99,,2013-04-10 16:43:00,
2013-04-10 11:52:00,45.0,43.0,-100.00,NE,40,5.0,8.0,92,0.13,,,-99.99,,2013-04-10 16:52:00,
2013-04-10 12:02:00,45.0,43.0,-100.00,NE,40,5.0,8.0,92,0.13,,,-99.99,,2013-04-10 17:02:00,
2013-04-10 12:12:00,45.0,42.0,-100.00,NNE,15,3.0,8.0,92,0.11,,,-99.99,,2013-04-10 17:12:00,
2013-04-10 12:22:00,44.0,42.0,-100.00,NNE,30,3.0,7.0,92,0.21,,,-99.99,,2013-04-10 17:22:00,
2013-04-10 12:33:00,45.0,43.0,-100.00,NE,40,4.0,5.0,92,0.21,,,-99.99,,2013-04-10 17:33:00,
2013-04-10 12:42:00,45.0,43.0,-100.00,NE,40,4.0,5.0,92,0.21,,,-99.99,,2013-04-10 17:42:00,
2013-04-10 12:52:00,45.0,43.0,-100.00,NNE,30,4.0,7.0,92,0.13,,,-99.99,,2013-04-10 17:52:00,
2013-04-10 13:03:00,45.0,43.0,-100.00,NNE,30,4.0,7.0,92,0.13,,,-99.99,,2013-04-10 18:03:00,
2013-04-10 13:12:00,45.0,43.0,-100.00,NNE,20,6.0,7.0,92,0.13,,,-99.99,,2013-04-10 18:12:00,
2013-04-10 13:22:00,45.0,43.0,-100.00,NE,35,6.0,10.0,92,0.00,,,-99.99,,2013-04-10 18:22:00,
2013-04-10 13:33:00,45.0,43.0,-100.00,NE,45,4.0,9.0,92,0.13,,,-99.99,,2013-04-10 18:33:00,
2013-04-10 13:42:00,45.0,43.0,-100.00,NE,45,4.0,9.0,92,0.13,,,-99.99,,2013-04-10 18:42:00,
2013-04-10 13:52:00,45.0,43.0,-100.00,East,80,8.0,10.0,92,0.16,,,-99.99,,2013-04-10 18:52:00,
2013-04-10 14:03:00,45.0,43.0,-100.00,East,80,8.0,10.0,92,0.16,,,-99.99,,2013-04-10 19:03:00,
2013-04-10 14:12:00,46.0,44.0,-100.00,ENE,60,9.0,12.0,92,0.00,,,-99.99,,2013-04-10 19:12:00,
2013-04-10 14:22:00,46.0,44.0,-100.00,NE,50,10.0,14.0,92,0.00,,,-99.99,,2013-04-10 19:22:00,
2013-04-10 14:33:00,46.0,44.0,-100.00,NE,55,9.0,12.0,92,0.00,,,-99.99,,2013-04-10 19:33:00,
2013-04-10 14:42:00,46.0,44.0,-100.00,NE,55,9.0,12.0,92,0.00,,,-99.99,,2013-04-10 19:42:00,
2013-04-10 14:52:00,47.0,45.0,-100.00,NE,55,8.0,12.0,92,0.00,,,-99.99,,2013-04-10 19:52:00,
2013-04-10 15:03:00,47.0,45.0,-100.00,NE,55,8.0,12.0,92,0.00,,,-99.99,,2013-04-10 20:03:00,
2013-04-10 15:12:00,47.0,45.0,-100.00,NNE,15,6.0,11.0,92,0.00,,,-99.99,,2013-04-10 20:12:00,
2013-04-10 15:23:00,47.0,45.0,-100.00,North,0,4.0,7.0,92,0.00,,,-99.99,,2013-04-10 20:23:00,
2013-04-10 15:33:00,46.0,44.0,-100.00,NNW,345,9.0,11.0,92,0.00,,,-99.99,,2013-04-10 20:33:00,
2013-04-10 15:42:00,46.0,44.0,-100.00,NNW,345,9.0,11.0,92,0.00,,,-99.99,,2013-04-10 20:42:00,
2013-04-10 15:52:00,45.0,43.0,-100.00,NNW,330,9.0,12.0,92,0.13,,,-99.99,,2013-04-10 20:52:00,
2013-04-10 16:02:00,45.0,43.0,-100.00,NNW,330,9.0,12.0,92,0.13,,,-99.99,,2013-04-10 21:02:00,
2013-04-10 16:12:00,45.0,43.0,-100.00,North,5,9.0,11.0,92,0.20,,,-99.99,,2013-04-10 21:12:00,
2013-04-10 16:22:00,45.0,43.0,-100.00,North,5,11.0,14.0,92,0.14,,,-99.99,,2013-04-10 21:22:00,
2013-04-10 16:33:00,44.0,42.0,-100.00,North,0,12.0,16.0,92,0.11,,,-99.99,,2013-04-10 21:33:00,
2013-04-10 16:42:00,44.0,42.0,-100.00,North,0,12.0,16.0,92,0.11,,,-99.99,,2013-04-10 21:42:00,
2013-04-10 16:53:00,44.0,41.0,-100.00,NNE,15,10.0,14.0,92,0.13,,,-99.99,,2013-04-10 21:53:00,
2013-04-10 17:03:00,44.0,41.0,-100.00,NNE,15,10.0,14.0,92,0.13,,,-99.99,,2013-04-10 22:03:00,
2013-04-10 17:12:00,43.0,41.0,-100.00,North,5,14.0,18.0,92,0.00,,,-99.99,,2013-04-10 22:12:00,
2013-04-10 17:22:00,43.0,41.0,-100.00,North,10,15.0,19.0,92,0.00,,,-99.99,,2013-04-10 22:22:00,
2013-04-10 17:33:00,42.0,40.0,-100.00,NNE,25,14.0,21.0,92,0.00,,,-99.99,,2013-04-10 22:33:00,
2013-04-10 17:42:00,42.0,40.0,-100.00,NNE,25,14.0,21.0,92,0.00,,,-99.99,,2013-04-10 22:42:00,
2013-04-10 17:52:00,42.0,40.0,-100.00,NNE,30,14.0,21.0,92,0.00,,,-99.99,,2013-04-10 22:52:00,
2013-04-10 18:02:00,42.0,40.0,-100.00,NNE,30,14.0,21.0,92,0.00,,,-99.99,,2013-04-10 23:02:00,
2013-04-10 18:12:00,42.0,40.0,-100.00,NE,35,14.0,21.0,92,0.08,,,-99.99,,2013-04-10 23:12:00,
2013-04-10 18:22:00,42.0,40.0,-100.00,NNE,20,15.0,24.0,92,0.00,,,-99.99,,2013-04-10 23:22:00,
2013-04-10 18:33:00,41.0,39.0,-100.00,NNE,15,9.0,20.0,92,0.00,,,-99.99,,2013-04-10 23:33:00,
2013-04-10 18:42:00,41.0,39.0,-100.00,NNE,15,9.0,20.0,92,0.00,,,-99.99,,2013-04-10 23:42:00,
2013-04-10 18:52:00,41.0,39.0,-100.00,NNE,25,10.0,17.0,92,0.00,,,-99.99,,2013-04-10 23:52:00,
2013-04-10 19:02:00,41.0,39.0,-100.00,NNE,25,10.0,17.0,92,0.00,,,-99.99,,2013-04-11 00:02:00,
2013-04-10 19:12:00,41.0,39.0,-100.00,NNE,20,11.0,16.0,92,0.13,,,-99.99,,2013-04-11 00:12:00,
2013-04-10 19:22:00,41.0,39.0,-100.00,North,10,7.0,16.0,92,0.00,,,-99.99,,2013-04-11 00:22:00,
2013-04-10 19:32:00,41.0,39.0,-100.00,NE,50,11.0,21.0,92,0.13,,,-99.99,,2013-04-11 00:32:00,
2013-04-10 19:42:00,41.0,39.0,-100.00,NE,50,11.0,21.0,92,0.13,,,-99.99,,2013-04-11 00:42:00,
2013-04-10 19:52:00,41.0,39.0,-100.00,NNE,20,9.0,22.0,92,0.00,,,-99.99,,2013-04-11 00:52:00,
2013-04-10 20:02:00,41.0,39.0,-100.00,NNE,20,9.0,22.0,92,0.00,,,-99.99,,2013-04-11 01:02:00,
2013-04-10 20:12:00,41.0,39.0,-100.00,North,10,7.0,12.0,92,0.00,,,-99.99,,2013-04-11 01:12:00,
2013-04-10 20:22:00,41.0,39.0,-100.00,North,10,6.0,9.0,92,0.00,,,-99.99,,2013-04-11 01:22:00,
2013-04-10 20:32:00,41.0,39.0,-100.00,NNE,25,7.0,11.0,92,0.25,,,-99.99,,2013-04-11 01:32:00,
2013-04-10 20:42:00,41.0,39.0,-100.00,NNE,25,7.0,11.0,92,0.25,,,-99.99,,2013-04-11 01:42:00,
2013-04-10 20:52:00,41.0,39.0,-100.00,NE,35,7.0,11.0,92,0.64,,,-99.99,,2013-04-11 01:52:00,
2013-04-10 21:03:00,41.0,39.0,-100.00,NE,35,7.0,11.0,92,0.64,,,-99.99,,2013-04-11 02:03:00,
2013-04-10 21:12:00,41.0,38.0,-100.00,North,5,7.0,9.0,92,0.35,,,-99.99,,2013-04-11 02:12:00,
2013-04-10 21:22:00,40.0,38.0,-100.00,NNE,20,6.0,10.0,92,0.20,,,-99.99,,2013-04-11 02:22:00,
2013-04-10 21:32:00,40.0,38.0,-100.00,NNE,15,6.0,8.0,92,0.00,,,-99.99,,2013-04-11 02:32:00,
2013-04-10 21:42:00,40.0,38.0,-100.00,NNE,15,6.0,8.0,92,0.00,,,-99.99,,2013-04-11 02:42:00,
2013-04-10 21:52:00,40.0,38.0,-100.00,NNE,30,7.0,9.0,92,0.00,,,-99.99,,2013-04-11 02:52:00,
2013-04-10 22:02:00,40.0,38.0,-100.00,NNE,30,7.0,9.0,92,0.00,,,-99.99,,2013-04-11 03:02:00,
2013-04-10 22:12:00,40.0,38.0,-100.00,NE,40,6.0,9.0,92,0.13,,,-99.99,,2013-04-11 03:12:00,
2013-04-10 22:22:00,40.0,38.0,-100.00,NE,55,6.0,10.0,92,0.00,,,-99.99,,2013-04-11 03:22:00,
2013-04-10 22:33:00,40.0,38.0,-100.00,NE,40,2.0,4.0,92,0.00,,,-99.99,,2013-04-11 03:33:00,
2013-04-10 22:43:00,40.0,38.0,-100.00,NE,40,2.0,4.0,92,0.00,,,-99.99,,2013-04-11 03:43:00,
2013-04-10 22:53:00,40.0,38.0,-100.00,NE,55,2.0,4.0,92,0.13,,,-99.99,,2013-04-11 03:53:00,
2013-04-10 23:03:00,40.0,38.0,-100.00,NE,55,2.0,4.0,92,0.13,,,-99.99,,2013-04-11 04:03:00,
2013-04-10 23:12:00,40.0,38.0,-100.00,NNE,30,1.0,4.0,92,0.10,,,-99.99,,2013-04-11 04:12:00,
2013-04-10 23:22:00,40.0,38.0,-100.00,NNE,25,1.0,2.0,92,0.10,,,-99.99,,2013-04-11 04:22:00,
2013-04-10 23:33:00,40.0,38.0,-100.00,NNE,25,3.0,4.0,92,0.11,,,-99.99,,2013-04-11 04:33:00,
2013-04-10 23:42:00,40.0,38.0,-100.00,NNE,15,2.0,4.0,92,0.00,,,-99.99,,2013-04-11 04:42:00,
2013-04-10 23:52:00,40.0,38.0,-100.00,NNE,15,4.0,4.0,92,0.00,,,-99.99,,2013-04-11 04:52:00,